Location: Poughquag
(41.6090°N, 73.6820°W)
Time: 10:57:58
(UTC-05:00)

Envisat - Pass Details

Date: 18 January 2020
Orbit: 764 x 766 km, 98.1° (Epoch: 24 February)

Event Time Altitude Azimuth Distance (km) Brightness Sun altitude
Rises 05:33:24 0° 28° (NNE) 3,240 6.5 -19.3°
Reaches altitude 10° 05:36:17 10° 44° (NE) 2,308 5.9 -18.7°
Maximum altitude 05:40:04 21° 93° (E) 1,679 5.7 -18.0°
Drops below altitude 10° 05:43:49 10° 141° (SE) 2,295 6.2 -17.3°
Sets 05:46:39 0° 157° (SSE) 3,215 6.8 -16.8°
